Location: Neuvy Saint Sepulchre
(46.5953°N, 1.8122°E)
Time: 16:43:31
(UTC+02:00)

ISS - Pass Details

Date: 04 May 2026
Orbit: 414 x 424 km, 51.6° (Epoch: 21 May)

Event Time Altitude Azimuth Distance (km) Brightness Sun altitude
Exits shadow 02:30:59 18° 52° (NE) 1,111 -1.1 -26.8°
Drops below altitude 10° 02:32:01 10° 59° (ENE) 1,499 -0.5 -26.8°
Sets 02:34:12 0° 66° (ENE) 2,366 0.5 -26.7°
